[[{"header":{"parameterUnit":"m.s-1","parameterCategory":1,"la1":30.2991,"la2":30.254,"lo1":-89.0895,"lo2":-89.0444,"dy":0.0017,"dx":0.0017,"nx":28,"ny":28,"refTime":"2024-11-24T03:00:00:Z","depth":0,"parameterNumber":2,"parameterNumberName":"U-component_of_WINDS"},"data":[0,0,0,0,0,0,0,0,0,0,0,0,0,0,0,0,0,0,0,0,0,0,0,0,0,0,0,0,0,0,0,0,0,0,0,0,0,0,0,0,0,0,0,0,0,0,0,0,0,0,0,0,0,0,0,0,0,0,0.2051,0.2052,0,0.212,0.2121,0.2121,0.2085,0.2084,0.2082,0.208,0.2152,0.2156,0.2159,0,0,0,0,0,0,0,0,0,0,0,0,0,0.1889,0.1892,0.2051,0.2052,0.2052,0.212,0.2121,0.2122,0.2086,0.2084,0.2081,0.2079,0.2151,0.2155,0.216,0,0,0,0,0,0,0,0,0,0,0,0,0,0.1958,0.1893,0.2051,0.2043,0.2043,0.212,0.2121,0.2122,0.2086,0.2083,0.2081,0.2078,0.215,0.2155,0.216,0.2249,0,0,0.2177,0.2179,0,0,0,0,0,0,0,0,0.1955,0.1964,0.2043,0.2043,0.2043,0.2091,0.209,0.2165,0.2087,0.207,0.208,0.2077,0.2134,0.2141,0.216,0.2253,0.2256,0.2177,0.2181,0.2183,0.2185,0,0,0,0,0,0,0,0.195,0.1961,0.2078,0.2044,0.2044,0.2036,0.2043,0.2104,0.2117,0.2071,0.2069,0.2077,0.2134,0.2155,0.2161,0.2257,0.2177,0.2182,0.2185,0.2188,0.2426,0.2429,0,0,0,0,0,0,0.1945,0.1958,0.2076,0.208,0.1991,0.2041,0.2049,0.2079,0.2116,0.2119,0.2079,0.2075,0.2147,0.2155,0.2164,0.2271,0.2183,0.2188,0.2191,0.2423,0.2427,0.243,0,0,0,0,0,0,0.1942,0.1956,0.2073,0.2018,0.2032,0.2047,0.2081,0.2082,0.2102,0.2122,0.2124,0.2098,0.2145,0.2156,0.2228,0.2273,0.2191,0.2196,0.242,0.2424,0.2429,0.2485,0,0,0,0,0,0,0.1937,0.1955,0.1989,0.2019,0.2036,0.2136,0.2083,0.2085,0.2112,0.2107,0.2141,0.2144,0.2144,0.222,0.2234,0.2279,0.22,0.2416,0.2422,0.2427,0.2479,0.2491,0.2501,0,0,0,0,0,0.1932,0.2002,0.1991,0.2005,0.2078,0.2139,0.2148,0.2146,0.2115,0.215,0.2162,0.2143,0.2265,0.2228,0.2243,0.229,0.2413,0.242,0.2427,0.2475,0.2489,0.2501,0,0,0,0,0,0,0.1977,0.2006,0.1994,0.2076,0.2105,0.2133,0.2176,0.2162,0.2201,0.2194,0.2191,0.2199,0.2274,0.2289,0.2247,0.2378,0.2334,0.2345,0.2366,0.2379,0.239,0.2385,0.2204,0,0,0,0,0,0.1997,0.2044,0.2066,0.2137,0.2152,0.2162,0.2188,0.2184,0.2214,0.2227,0.2245,0.2275,0.2321,0.2351,0.2394,0.2481,0.2488,0.2521,0.2532,0.2541,0.255,0.2597,0.2612,0.2453,0.2453,0.2453,0,0,0.2038,0.2059,0.2089,0.2147,0.2169,0.2218,0.2172,0.2226,0.2262,0.2235,0.2304,0.2319,0.2352,0.2433,0.2469,0.2448,0.2595,0.2549,0.2556,0.2561,0.2606,0.2621,0.2634,0.2458,0.2457,0.2456,0,0,0.2138,0.2159,0.222,0.2243,0.2277,0.2283,0.2297,0.2327,0.2335,0.2405,0.2385,0.2428,0.2507,0.2532,0.2555,0.2664,0.2647,0.2678,0.2735,0.2781,0.2794,0.2805,0.2844,0.2858,0.2687,0.2687,0.2687,0,0.2185,0.2257,0.2253,0.2309,0.2334,0.2311,0.2374,0.2396,0.2443,0.2461,0.2436,0.2534,0.2555,0.2641,0.2668,0.2687,0.2704,0.2674,0.2792,0.2803,0.2814,0.2851,0.2866,0.269,0.269,0.269,0.2689,0,0.2313,0.2364,0.2409,0.2455,0.2486,0.2544,0.2549,0.2581,0.2574,0.2583,0.2654,0.2678,0.2726,0.2745,0.274,0.2831,0.2817,0.2792,0.2748,0.2833,0.2868,0.2882,0.2695,0.2694,0.2693,0.2692,0,0,0.2444,0.2486,0.2503,0.2523,0.2559,0.2598,0.2656,0.2702,0.273,0.2762,0.2811,0.2877,0.2855,0.2881,0.2877,0.2918,0.3003,0.2889,0.2889,0.291,0.3106,0.3124,0.3141,0.2992,0.2995,0.2997,0.3103,0,0.2547,0.2647,0.2645,0.2738,0.2786,0.2764,0.2814,0.2842,0.2851,0.2893,0.2903,0.295,0.2917,0.2933,0.2972,0.2985,0.3043,0.2977,0.3038,0.304,0.303,0.3159,0.3179,0.3278,0.3117,0.3119,0.3121,0,0.268,0.2717,0.2815,0.2844,0.2864,0.2909,0.2951,0.2991,0.3021,0.3025,0.3054,0.3044,0.3103,0.3057,0.3138,0.3093,0.3117,0.3128,0.3131,0.3137,0.3086,0.3169,0.3309,0.3324,0.3142,0.314,0.3139,0,0.2766,0.284,0.2909,0.2927,0.2962,0.2994,0.3011,0.3039,0.3066,0.3103,0.3121,0.3165,0.3189,0.3222,0.3224,0.3191,0.3306,0.326,0.3311,0.3312,0.3337,0.3336,0.3484,0.3352,0.3352,0.3352,0.3352,0,0.2881,0.2942,0.2948,0.299,0.3058,0.3055,0.3122,0.3135,0.316,0.3205,0.3189,0.3231,0.3231,0.3274,0.3276,0.3343,0.3353,0.3358,0.3358,0.336,0.336,0.3377,0.337,0.3356,0.3355,0.3354,0.3354,0,0.2988,0.2995,0.3068,0.3096,0.3104,0.3153,0.3176,0.3217,0.3224,0.3281,0.3294,0.3306,0.3356,0.3361,0.3419,0.3421,0.3501,0.3494,0.3491,0.349,0.3541,0.3536,0.3705,0.3728,0.3582,0.3583,0.3584,0,0.3061,0.3108,0.3141,0.3169,0.3187,0.3234,0.3262,0.3261,0.3291,0.333,0.3365,0.3413,0.3452,0.3532,0.3547,0.3591,0.3584,0.3641,0.3591,0.3591,0.3586,0.3583,0.3588,0.365,0.3652,0.3653,0.3654,0,0.3191,0.3192,0.3233,0.3276,0.331,0.3344,0.3375,0.34,0.3403,0.3437,0.3488,0.3518,0.3577,0.3625,0.3668,0.3685,0.3671,0.367,0.3684,0.3687,0.3683,0.3686,0.3518,0.3666,0.3665,0.3664,0.3663,0.3663,0.3283,0.3324,0.3353,0.34,0.3424,0.3453,0.3493,0.3505,0.3547,0.3595,0.3592,0.3648,0.3678,0.3735,0.3755,0.3799,0.378,0.38,0.3806,0.3811,0.3816,0.3676,0.3806,0.3806,0.3806,0.3806,0.3805,0,0.3412,0.343,0.3473,0.3518,0.3554,0.3537,0.3571,0.3603,0.3653,0.3682,0.372,0.3778,0.3824,0.3842,0.3888,0.392,0.3914,0.3932,0.3929,0.3934,0.383,0.3814,0.3935,0.3935,0.3935,0.3935,0.3935,0.3935,0.3483,0.355,0.3555,0.3634,0.3651,0.3706,0.3727,0.3755,0.3778,0.3843,0.3882,0.3893,0.3918,0.3965,0.4007,0.4011,0.4029,0.4049,0.4051,0.3954,0.3941,0.3928,0.3913,0.4053,0.4053,0.415,0.4151,0.4152]},{"header":{"parameterUnit":"m.s-1","parameterCategory":1,"la1":30.2991,"la2":30.254,"lo1":-89.0895,"lo2":-89.0444,"dy":0.0017,"dx":0.0017,"nx":28,"ny":28,"refTime":"2024-11-24T03:00:00:Z","depth":0,"parameterNumber":3,"parameterNumberName":"V-component_of_WINDS"},"data":[0,0,0,0,0,0,0,0,0,0,0,0,0,0,0,0,0,0,0,0,0,0,0,0,0,0,0,0,0,0,0,0,0,0,0,0,0,0,0,0,0,0,0,0,0,0,0,0,0,0,0,0,0,0,0,0,0,0,2.8682,2.8684,0,2.8853,2.8855,2.8857,2.8849,2.8846,2.8844,2.8842,2.902,2.9027,2.9033,0,0,0,0,0,0,0,0,0,0,0,0,0,2.8352,2.8358,2.8682,2.8684,2.8686,2.8853,2.8855,2.8857,2.8849,2.8846,2.8843,2.8841,2.9017,2.9026,2.9034,0,0,0,0,0,0,0,0,0,0,0,0,0,2.8506,2.836,2.8682,2.8702,2.8706,2.8852,2.8855,2.8858,2.885,2.8846,2.8843,2.8839,2.9015,2.9025,2.9035,2.9174,0,0,2.9067,2.9072,0,0,0,0,0,0,0,0,2.8497,2.8518,2.8697,2.8701,2.8705,2.8826,2.8804,2.8964,2.8851,2.8795,2.8842,2.8837,2.8958,2.8973,2.9014,2.9182,2.9189,2.9068,2.9075,2.9079,2.9082,0,0,0,0,0,0,0,2.8487,2.8511,2.875,2.87,2.8705,2.8704,2.8722,2.8834,2.8895,2.88,2.88,2.882,2.896,2.9003,2.9018,2.9192,2.9068,2.9077,2.9084,2.9088,2.9484,2.9488,0,0,0,0,0,0,2.8471,2.8502,2.8744,2.8755,2.859,2.8713,2.8733,2.8791,2.8894,2.8906,2.8823,2.8819,2.8987,2.9005,2.9024,2.9193,2.9079,2.9089,2.9095,2.948,2.9485,2.9489,0,0,0,0,0,0,2.8464,2.8493,2.8737,2.8628,2.866,2.8722,2.8788,2.8796,2.884,2.8911,2.8923,2.8856,2.8985,2.9009,2.9136,2.9199,2.9094,2.9103,2.9475,2.9481,2.9487,2.9533,0,0,0,0,0,0,2.8454,2.849,2.8543,2.863,2.8665,2.8846,2.8791,2.8802,2.8857,2.8854,2.8945,2.8957,2.8984,2.9121,2.9147,2.9212,2.9112,2.9469,2.9477,2.9485,2.9526,2.954,2.9552,0,0,0,0,0,2.8443,2.8549,2.8545,2.8575,2.8732,2.885,2.8871,2.8899,2.8862,2.8916,2.8963,2.8954,2.9188,2.9134,2.9163,2.9232,2.9465,2.9475,2.9484,2.952,2.9537,2.9552,0,0,0,0,0,0,2.8469,2.8561,2.8558,2.8695,2.8765,2.8848,2.8917,2.8916,2.8998,2.8991,2.9023,2.9044,2.9172,2.9215,2.9153,2.9372,2.9322,2.9338,2.934,2.9356,2.9369,2.9357,2.912,0,0,0,0,0,2.8491,2.8578,2.8654,2.8768,2.8803,2.8854,2.8906,2.8922,2.8996,2.9025,2.9081,2.9153,2.9243,2.9302,2.9389,2.9532,2.9553,2.9594,2.9607,2.9617,2.9631,2.9711,2.9731,2.952,2.952,2.952,0,0,2.8537,2.8598,2.8651,2.8775,2.883,2.8921,2.8879,2.8976,2.9044,2.904,2.9164,2.9207,2.9291,2.9427,2.949,2.9467,2.9693,2.9629,2.9637,2.9645,2.9723,2.9743,2.976,2.9527,2.9525,2.9524,0,0,2.8667,2.8721,2.8823,2.8879,2.8963,2.8997,2.9021,2.9105,2.9134,2.9258,2.9258,2.9339,2.9493,2.9553,2.9603,2.9756,2.9752,2.9784,2.9852,2.9929,2.9946,2.9961,3.0017,3.0036,2.9797,2.9797,2.9797,0,2.8714,2.8849,2.8875,2.8974,2.9029,2.9028,2.9132,2.9186,2.9295,2.9334,2.9306,2.95,2.9556,2.9706,2.9743,2.9784,2.9814,2.9774,2.9941,2.9956,2.9971,3.0024,3.0045,2.98,2.98,2.98,2.9799,0,2.8903,2.8997,2.9069,2.9173,2.9236,2.9337,2.9379,2.944,2.9451,2.9487,2.9615,2.9682,2.9782,2.9819,2.983,2.9972,2.9955,2.9934,2.9885,2.9994,3.0045,3.0065,2.9805,2.9804,2.9803,2.9802,0,0,2.9055,2.9172,2.9199,2.9246,2.9339,2.9413,2.9514,2.9612,2.9664,2.9739,2.9825,2.9956,2.9937,2.9994,3.0012,3.008,3.0199,3.0051,3.0054,3.0077,3.036,3.0376,3.0399,3.0196,3.02,3.0203,3.0353,0,2.9196,2.9374,2.9401,2.9558,2.9646,2.9647,2.9735,2.9802,2.9839,2.992,2.9961,3.0053,3.0021,3.0056,3.0123,3.017,3.0256,3.0159,3.0278,3.0282,3.0258,3.0425,3.0443,3.0581,3.0373,3.0377,3.0379,0,2.9384,2.9463,2.9629,2.9711,2.9749,2.9827,2.9919,2.9996,3.0073,3.0095,3.0159,3.0169,3.0275,3.022,3.0367,3.03,3.035,3.0381,3.0387,3.04,3.0338,3.0444,3.0626,3.0647,3.041,3.0408,3.0406,0,2.948,2.9628,2.9747,2.9787,2.9885,2.9941,2.9984,3.0057,3.0114,3.0195,3.0233,3.0325,3.0376,3.0447,3.0482,3.0439,3.0627,3.0575,3.065,3.0649,3.069,3.0687,3.0884,3.0721,3.0721,3.072,3.072,0,2.9635,2.9737,2.9791,2.9864,2.9979,3.0009,3.0121,3.0163,3.0229,3.0311,3.0317,3.0394,3.0435,3.0519,3.0547,3.0665,3.0687,3.0709,3.0716,3.0709,3.0707,3.0743,3.0735,3.0726,3.0724,3.0723,3.0722,0,2.9762,2.9802,2.9932,3.0013,3.0036,3.0117,3.0188,3.026,3.0295,3.04,3.0426,3.0483,3.0582,3.0623,3.0745,3.0763,3.0899,3.0898,3.0873,3.0876,3.0948,3.0941,3.1176,3.1209,3.1023,3.1025,3.1026,0,2.9859,2.9937,3.0027,3.0081,3.0126,3.0215,3.0273,3.0306,3.0366,3.046,3.0521,3.0619,3.07,3.0858,3.0911,3.1004,3.1006,3.1082,3.102,3.1011,3.1008,3.1003,3.1012,3.1093,3.1095,3.1097,3.1098,0,3.0026,3.0042,3.0125,3.0216,3.0284,3.0357,3.0429,3.0474,3.0518,3.0586,3.0686,3.0749,3.0872,3.0971,3.1067,3.1113,3.1114,3.1117,3.1139,3.1134,3.1117,3.1128,3.0905,3.1111,3.111,3.1109,3.1108,3.1108,3.0142,3.0212,3.0286,3.0378,3.0435,3.0502,3.0573,3.0618,3.0702,3.0804,3.0819,3.0927,3.1002,3.1131,3.1181,3.1267,3.1248,3.128,3.1289,3.1296,3.1301,3.1102,3.1285,3.1284,3.1284,3.1284,3.1283,0,3.0311,3.0359,3.0443,3.0542,3.0615,3.0608,3.0686,3.0748,3.0843,3.0913,3.0992,3.1108,3.1203,3.1263,3.136,3.1417,3.142,3.1441,3.1438,3.1449,3.1312,3.1284,3.1437,3.1437,3.1437,3.1437,3.1437,3.1437,3.0408,3.0525,3.055,3.0697,3.0744,3.0849,3.0894,3.0956,3.1012,3.1141,3.122,3.1258,3.1325,3.1426,3.1514,3.1529,3.1565,3.1588,3.1602,3.1474,3.1458,3.1443,3.1416,3.1595,3.1595,3.1731,3.1733,3.1733]}]]